Wind_Speed
24 21 20 21 19 17 15 12 13 11 9 7 6 5 4 7 9 6 7 9 9 8
25 22 18 20 18 16 15 14 13 11 10 9 9 8 6 7 6 9 9 11 13 13
29 25 21 21 20 19 17 16 14 12 11 10 9 10 11 11 11 13 14 13 14 16
30 25 23 20 19 19 17 15 14 13 13 13 12 12 13 14 14 15 14 14 14 15
32 28 25 21 20 19 18 16 15 13 14 14 13 11 13 14 14 14 15 15 15 17
35 32 29 26 24 23 20 18 16 13 13 12 12 13 14 15 17 16 15 17 18 18
41 38 33 31 31 29 25 21 18 15 13 13 15 15 17 18 18 16 15 15 17 17
43 39 36 32 31 31 28 25 19 17 17 18 19 19 18 17 14 13 13 14 16 18
41 37 38 32 30 30 31 28 22 23 22 21 22 20 17 15 14 15 15 16 17 19
45 44 42 36 31 29 32 29 27 26 24 24 23 20 18 17 18 19 19 16 16 16
35 47 39 36 32 32 31 30 28 28 25 24 24 20 18 18 21 18 19 16 14 14
50 42 35 34 32 34 31 27 28 27 26 21 19 15 19 18 19 16 16 15 13 13
42 33 30 33 32 28 30 28 31 23 19 21 23 19 16 14 16 17 16 16 12 10
22 17 12 8 4 9 20 27 24 14 20 22 20 18 14 15 19 17 15 15 13 11
Wind_Direction
206 207 202 200 203 204 201 202 191 202 199 202 209 254 297 282 258 277 280 256 258 250
202 197 198 201 193 198 206 210 207 210 211 224 242 255 287 288 293 273 284 278 264 258
201 202 203 203 212 214 215 211 204 206 220 232 246 260 269 274 274 275 279 277 273 260
201 201 205 206 205 210 213 206 215 223 234 241 251 260 265 269 274 280 279 276 275 272
200 199 201 206 212 212 213 212 219 225 235 244 253 261 268 274 278 277 279 282 281 277
197 203 206 211 215 216 217 219 218 228 235 243 252 259 267 273 274 275 281 285 284 288
200 208 212 214 219 223 224 223 221 229 232 237 250 262 270 274 274 279 280 281 284 287
203 209 215 214 218 226 227 228 228 232 235 242 253 259 267 276 273 268 268 277 283 283
202 209 219 211 218 224 229 230 230 234 239 247 253 259 262 265 265 262 263 273 282 291
205 215 216 211 217 226 233 234 232 237 241 250 258 261 267 268 254 266 265 274 290 293
195 213 213 215 218 231 237 238 235 238 243 254 263 272 274 279 272 264 266 278 279 283
211 210 212 215 222 234 242 248 243 241 244 252 258 280 281 282 267 257 265 274 282 284
201 206 212 219 229 241 243 253 251 245 259 263 273 277 281 267 253 263 267 278 287 288
206 204 196 180 162 10 339 274 245 253 262 262 262 273 264 257 260 262 274 283 295 307
Height
800 802 806 809 812 814 815 816 817 820 821 823 823 822 822 821 821 821 820 821 819 818
796 800 803 806 808 811 813 814 816 817 818 820 820 820 820 820 820 820 819 819 818 818
792 796 801 804 805 807 809 811 813 814 816 817 817 818 817 817 816 815 815 814 814 814
787 792 797 800 802 804 806 808 810 811 813 814 814 814 814 814 813 812 812 811 810 809
782 788 793 797 799 800 802 804 806 808 809 810 810 811 811 810 809 808 807 806 806 805
777 784 787 791 794 795 797 800 803 804 804 805 807 807 806 806 805 805 804 803 802 801
767 774 779 783 787 790 793 796 797 799 800 800 802 802 802 802 801 799 799 799 798 797
762 768 772 773 777 782 787 789 792 794 796 797 797 797 796 796 796 795 794 794 794 793
756 762 769 770 771 776 780 784 787 789 791 793 794 793 793 792 791 791 791 790 789 789
750 762 762 764 769 770 774 778 782 785 787 788 788 789 790 789 787 788 787 787 786 783
751 756 756 758 762 764 769 772 776 780 783 784 785 786 785 784 784 781 783 782 780 778
747 744 749 751 756 759 765 770 774 774 776 779 781 780 781 780 780 777 775 775 775 773
733 738 740 746 752 757 760 765 770 771 774 776 776 775 774 776 776 774 771 772 771 767
727 732 739 746 752 757 766 766 763 764 768 770 770 771 771 771 775 771 770 769 766 762